| time (UTC) | temp F | wind direction | speed MPH | gust MPH | rain 1hr in | rain 24hr in | rain mn in | humidity % | barometer mb |
| 20260508013014 | 56 | 198 | 8.0 | 12.0 | 0.00 | 0.00 | 0.00 | 64 | 1009.9 |
| 20260508012514 | 57 | 216 | 7.0 | 13.0 | 0.00 | 0.00 | 0.00 | 63 | 1009.9 |
| 20260508012014 | 57 | 212 | 8.0 | 14.0 | 0.00 | 0.00 | 0.00 | 62 | 1009.8 |
| 20260508011515 | 57 | 213 | 8.0 | 18.0 | 0.00 | 0.00 | 0.00 | 61 | 1009.8 |
| 20260508011014 | 58 | 253 | 11.0 | 18.0 | 0.00 | 0.00 | 0.00 | 61 | 1009.7 |
| 20260508010514 | 58 | 204 | 9.0 | 16.0 | 0.00 | 0.00 | 0.00 | 61 | 1009.7 |
| 20260508010031 | 58 | 205 | 11.0 | 16.0 | 0.00 | 0.00 | 0.00 | 60 | 1009.6 |
| 20260508005514 | 58 | 213 | 9.0 | 13.0 | 0.00 | 0.00 | 0.00 | 60 | 1009.5 |
| 20260508005014 | 59 | 223 | 9.0 | 15.0 | 0.00 | 0.00 | 0.00 | 59 | 1009.4 |
| 20260508004513 | 59 | 227 | 10.0 | 15.0 | 0.00 | 0.00 | 0.00 | 59 | 1009.5 |
| 20260508004016 | 59 | 213 | 10.0 | 15.0 | 0.00 | 0.00 | 0.00 | 58 | 1009.4 |
| 20260508003514 | 59 | 213 | 8.0 | 15.0 | 0.00 | 0.00 | 0.00 | 58 | 1009.5 |
| 20260508003013 | 60 | 219 | 8.0 | 13.0 | 0.00 | 0.00 | 0.00 | 58 | 1009.4 |
| 20260508002516 | 60 | 209 | 8.0 | 14.0 | 0.00 | 0.00 | 0.00 | 57 | 1009.6 |
| 20260508002014 | 60 | 214 | 8.0 | 14.0 | 0.00 | 0.00 | 0.00 | 57 | 1009.5 |
| 20260508001514 | 60 | 200 | 6.0 | 11.0 | 0.00 | 0.00 | 0.00 | 57 | 1009.5 |
| 20260508001012 | 60 | 228 | 7.0 | 15.0 | 0.00 | 0.00 | 0.00 | 56 | 1009.6 |
| 20260508000513 | 60 | 225 | 9.0 | 15.0 | 0.00 | 0.00 | 0.00 | 55 | 1009.4 |
| 20260508000011 | 61 | 220 | 9.0 | 15.0 | 0.00 | 0.00 | 0.00 | 54 | 1009.4 |
| 20260507235516 | 62 | 210 | 10.0 | 15.0 | 0.00 | 0.00 | 0.00 | 50 | 1009.4 |
| 20260507235013 | 62 | 215 | 9.0 | 15.0 | 0.00 | 0.00 | 0.00 | 48 | 1009.4 |
| 20260507234511 | 62 | 254 | 10.0 | 16.0 | 0.00 | 0.00 | 0.00 | 48 | 1009.3 |
| 20260507234013 | 62 | 244 | 10.0 | 20.0 | 0.00 | 0.00 | 0.00 | 47 | 1009.4 |
| 20260507233511 | 62 | 259 | 11.0 | 20.0 | 0.00 | 0.00 | 0.00 | 46 | 1009.3 |
| 20260507233010 | 62 | 258 | 9.0 | 16.0 | 0.00 | 0.00 | 0.00 | 51 | 1009.3 |
| 20260507232510 | 62 | 206 | 9.0 | 16.0 | 0.00 | 0.00 | 0.00 | 49 | 1009.4 |
| 20260507232013 | 62 | 259 | 10.0 | 18.0 | 0.00 | 0.00 | 0.00 | 47 | 1009.3 |
| 20260507231509 | 62 | 255 | 11.0 | 18.0 | 0.00 | 0.00 | 0.00 | 48 | 1009.5 |
| 20260507231009 | 62 | 219 | 12.0 | 17.0 | 0.00 | 0.00 | 0.00 | 48 | 1009.4 |
| 20260507230509 | 63 | 246 | 11.0 | 17.0 | 0.00 | 0.00 | 0.00 | 48 | 1009.4 |
| 20260507230019 | 62 | 221 | 12.0 | 17.0 | 0.00 | 0.00 | 0.00 | 47 | 1009.5 |
| 20260507225508 | 62 | 260 | 9.0 | 15.0 | 0.00 | 0.00 | 0.00 | 47 | 1009.6 |
| 20260507225008 | 62 | 252 | 10.0 | 15.0 | 0.00 | 0.00 | 0.00 | 48 | 1009.6 |
| 20260507224509 | 63 | 224 | 9.0 | 20.0 | 0.00 | 0.00 | 0.00 | 48 | 1009.7 |
| 20260507224006 | 62 | 233 | 9.0 | 20.0 | 0.00 | 0.00 | 0.00 | 50 | 1009.7 |
| 20260507223506 | 62 | 227 | 10.0 | 21.0 | 0.00 | 0.00 | 0.00 | 48 | 1009.8 |
| 20260507223005 | 62 | 225 | 13.0 | 21.0 | 0.00 | 0.00 | 0.00 | 47 | 1009.9 |
| 20260507222505 | 62 | 223 | 7.0 | 19.0 | 0.00 | 0.00 | 0.00 | 50 | 1010.0 |
| 20260507222004 | 63 | 242 | 11.0 | 22.0 | 0.00 | 0.00 | 0.00 | 48 | 1010.0 |
| 20260507221503 | 63 | 234 | 13.0 | 22.0 | 0.00 | 0.00 | 0.00 | 47 | 1010.1 |
| 20260507221001 | 63 | 229 | 11.0 | 22.0 | 0.00 | 0.00 | 0.00 | 49 | 1010.1 |
| 20260507220501 | 62 | 238 | 12.0 | 20.0 | 0.00 | 0.00 | 0.00 | 48 | 1010.1 |
| 20260507220100 | 62 | 247 | 11.0 | 19.0 | 0.00 | 0.00 | 0.00 | 52 | 1010.1 |
| 20260507215600 | 61 | 205 | 7.0 | 19.0 | 0.00 | 0.00 | 0.00 | 54 | 1010.2 |
| 20260507215100 | 61 | 215 | 8.0 | 17.0 | 0.00 | 0.00 | 0.00 | 54 | 1010.2 |
| 20260507214600 | 61 | 200 | 12.0 | 17.0 | 0.00 | 0.00 | 0.00 | 54 | 1010.4 |
| 20260507214058 | 60 | 190 | 9.0 | 16.0 | 0.00 | 0.00 | 0.00 | 55 | 1010.3 |
| 20260507213558 | 60 | 233 | 7.0 | 13.0 | 0.00 | 0.00 | 0.00 | 55 | 1010.4 |
| 20260507213134 | 60 | 225 | 7.0 | 13.0 | 0.00 | 0.00 | 0.00 | 55 | 1010.5 |
| 20260507212601 | 60 | 192 | 8.0 | 15.0 | 0.00 | 0.00 | 0.00 | 55 | 1010.4 |
| 20260507212057 | 60 | 229 | 10.0 | 15.0 | 0.00 | 0.00 | 0.00 | 56 | 1010.5 |
| 20260507211558 | 61 | 202 | 7.0 | 15.0 | 0.00 | 0.00 | 0.00 | 53 | 1010.3 |
| 20260507211055 | 62 | 229 | 9.0 | 15.0 | 0.00 | 0.00 | 0.00 | 55 | 1010.6 |
| 20260507210558 | 61 | 234 | 7.0 | 12.0 | 0.00 | 0.00 | 0.00 | 55 | 1010.6 |
| 20260507205555 | 60 | 207 | 9.0 | 16.0 | 0.00 | 0.00 | 0.00 | 56 | 1010.7 |
| 20260507205055 | 60 | 192 | 6.0 | 16.0 | 0.00 | 0.00 | 0.00 | 54 | 1010.9 |
| 20260507204552 | 59 | 174 | 7.0 | 11.0 | 0.00 | 0.00 | 0.00 | 56 | 1010.9 |
| 20260507204051 | 58 | 234 | 2.0 | 9.0 | 0.00 | 0.00 | 0.00 | 57 | 1011.0 |
| 20260507203551 | 59 | 196 | 4.0 | 8.0 | 0.00 | 0.00 | 0.00 | 55 | 1011.1 |
| 20260507203051 | 59 | 240 | 5.0 | 9.0 | 0.00 | 0.00 | 0.00 | 57 | 1011.1 |
| 20260507202550 | 59 | 168 | 3.0 | 9.0 | 0.00 | 0.00 | 0.00 | 53 | 1011.2 |
| 20260507202052 | 59 | 196 | 2.0 | 8.0 | 0.00 | 0.00 | 0.00 | 63 | 1011.3 |
| 20260507201603 | 58 | 199 | 4.0 | 8.0 | 0.00 | 0.00 | 0.00 | 56 | 1011.4 |
| 20260507201047 | 58 | 239 | 4.0 | 10.0 | 0.00 | 0.00 | 0.00 | 59 | 1011.6 |
| 20260507200546 | 58 | 249 | 5.0 | 10.0 | 0.00 | 0.00 | 0.00 | 57 | 1011.7 |
| 20260507200055 | 58 | 320 | 2.0 | 6.0 | 0.00 | 0.00 | 0.00 | 59 | 1011.8 |
| 20260507195544 | 57 | 324 | 3.0 | 11.0 | 0.00 | 0.00 | 0.00 | 58 | 1012.1 |
| 20260507195044 | 57 | 269 | 3.0 | 11.0 | 0.00 | 0.00 | 0.00 | 57 | 1012.6 |
| 20260507194544 | 57 | 243 | 6.0 | 11.0 | 0.00 | 0.00 | 0.00 | 57 | 1012.6 |
| 20260507194047 | 56 | 279 | 7.0 | 12.0 | 0.00 | 0.00 | 0.00 | 59 | 1012.5 |
| 20260507193543 | 56 | 311 | 6.0 | 12.0 | 0.00 | 0.00 | 0.00 | 60 | 1012.6 |
| 20260507193047 | 56 | 306 | 5.0 | 8.0 | 0.00 | 0.00 | 0.00 | 57 | 1012.5 |
| 20260507192545 | 56 | 292 | 4.0 | 14.0 | 0.00 | 0.00 | 0.00 | 54 | 1012.6 |
| 20260507192042 | 56 | 273 | 7.0 | 14.0 | 0.00 | 0.00 | 0.00 | 56 | 1012.8 |
| 20260507191542 | 56 | 303 | 5.0 | 12.0 | 0.00 | 0.00 | 0.00 | 59 | 1012.7 |
| 20260507191044 | 56 | 307 | 6.0 | 12.0 | 0.00 | 0.00 | 0.00 | 57 | 1012.7 |
| 20260507190542 | 56 | 299 | 7.0 | 12.0 | 0.00 | 0.00 | 0.00 | 58 | 1012.7 |
| 20260507190044 | 56 | 315 | 7.0 | 12.0 | 0.00 | 0.00 | 0.00 | 57 | 1012.5 |
| 20260507185541 | 57 | 304 | 5.0 | 11.0 | 0.00 | 0.00 | 0.00 | 55 | 1012.4 |
| 20260507185041 | 57 | 294 | 4.0 | 8.0 | 0.00 | 0.00 | 0.00 | 55 | 1012.4 |
| 20260507184541 | 57 | 304 | 5.0 | 8.0 | 0.00 | 0.00 | 0.00 | 59 | 1012.4 |
| 20260507184041 | 56 | 323 | 5.0 | 11.0 | 0.00 | 0.00 | 0.00 | 53 | 1012.5 |
| 20260507183540 | 57 | 290 | 5.0 | 11.0 | 0.00 | 0.00 | 0.00 | 54 | 1012.5 |
| 20260507183040 | 56 | 304 | 6.0 | 13.0 | 0.00 | 0.00 | 0.00 | 55 | 1012.8 |
| 20260507182538 | 55 | 285 | 6.0 | 13.0 | 0.00 | 0.00 | 0.00 | 56 | 1013.0 |
| 20260507182039 | 55 | 302 | 9.0 | 14.0 | 0.00 | 0.00 | 0.00 | 56 | 1012.9 |
| 20260507181537 | 55 | 276 | 7.0 | 23.0 | 0.00 | 0.00 | 0.00 | 55 | 1012.9 |
| 20260507181037 | 54 | 279 | 11.0 | 23.0 | 0.00 | 0.00 | 0.00 | 53 | 1013.1 |
| 20260507180538 | 55 | 276 | 14.0 | 21.0 | 0.00 | 0.00 | 0.00 | 52 | 1013.2 |
| 20260507180037 | 56 | 255 | 11.0 | 21.0 | 0.00 | 0.00 | 0.00 | 50 | 1013.2 |
| 20260507175537 | 57 | 234 | 14.0 | 21.0 | 0.00 | 0.00 | 0.00 | 47 | 1013.1 |
| 20260507175037 | 57 | 242 | 10.0 | 20.0 | 0.00 | 0.00 | 0.00 | 48 | 1013.0 |
| 20260507174548 | 57 | 253 | 13.0 | 18.0 | 0.00 | 0.00 | 0.00 | 46 | 1012.9 |
| 20260507174036 | 58 | 247 | 7.0 | 16.0 | 0.00 | 0.00 | 0.00 | 44 | 1012.9 |
| 20260507173536 | 58 | 257 | 8.0 | 15.0 | 0.00 | 0.00 | 0.00 | 43 | 1012.9 |
| 20260507173038 | 58 | 266 | 8.0 | 15.0 | 0.00 | 0.00 | 0.00 | 43 | 1012.9 |
| 20260507172541 | 58 | 267 | 7.0 | 19.0 | 0.00 | 0.00 | 0.00 | 40 | 1012.9 |
| 20260507172036 | 58 | 257 | 7.0 | 21.0 | 0.00 | 0.00 | 0.00 | 43 | 1013.0 |
| 20260507171535 | 60 | 236 | 14.0 | 21.0 | 0.00 | 0.00 | 0.00 | 41 | 1013.0 |
| 20260507171035 | 60 | 219 | 11.0 | 16.0 | 0.00 | 0.00 | 0.00 | 40 | 1012.9 |
| 20260507170536 | 60 | 227 | 9.0 | 18.0 | 0.00 | 0.00 | 0.00 | 40 | 1012.9 |
| 20260507170037 | 61 | 217 | 10.0 | 18.0 | 0.00 | 0.00 | 0.00 | 40 | 1013.0 |
| 20260507165533 | 61 | 206 | 11.0 | 16.0 | 0.00 | 0.00 | 0.00 | 38 | 1013.0 |
| 20260507165031 | 60 | 227 | 12.0 | 17.0 | 0.00 | 0.00 | 0.00 | 42 | 1013.0 |
| 20260507164531 | 59 | 235 | 9.0 | 17.0 | 0.00 | 0.00 | 0.00 | 45 | 1013.2 |
| 20260507164031 | 59 | 219 | 9.0 | 17.0 | 0.00 | 0.00 | 0.00 | 40 | 1013.3 |
| 20260507163532 | 59 | 197 | 10.0 | 17.0 | 0.00 | 0.00 | 0.00 | 44 | 1013.3 |
| 20260507163030 | 59 | 201 | 10.0 | 17.0 | 0.00 | 0.00 | 0.00 | 42 | 1013.4 |
| 20260507162528 | 60 | 247 | 9.0 | 19.0 | 0.00 | 0.00 | 0.00 | 43 | 1013.5 |
| 20260507162030 | 59 | 234 | 9.0 | 15.0 | 0.00 | 0.00 | 0.00 | 41 | 1013.5 |
| 20260507161530 | 59 | 222 | 7.0 | 19.0 | 0.00 | 0.00 | 0.00 | 41 | 1013.6 |
| 20260507161024 | 59 | 196 | 11.0 | 19.0 | 0.00 | 0.00 | 0.00 | 45 | 1013.7 |
| 20260507160524 | 59 | 219 | 9.0 | 14.0 | 0.00 | 0.00 | 0.00 | 45 | 1013.9 |
| 20260507160023 | 58 | 215 | 8.0 | 16.0 | 0.00 | 0.00 | 0.00 | 43 | 1013.9 |
| 20260507155523 | 58 | 229 | 11.0 | 16.0 | 0.00 | 0.00 | 0.00 | 47 | 1014.0 |
| 20260507155021 | 58 | 228 | 8.0 | 17.0 | 0.00 | 0.00 | 0.00 | 47 | 1014.0 |
| 20260507154522 | 57 | 222 | 11.0 | 17.0 | 0.00 | 0.00 | 0.00 | 44 | 1014.1 |
| 20260507154018 | 57 | 192 | 8.0 | 17.0 | 0.00 | 0.00 | 0.00 | 49 | 1014.1 |
| 20260507153518 | 57 | 202 | 9.0 | 17.0 | 0.00 | 0.00 | 0.00 | 47 | 1014.3 |
| 20260507153017 | 57 | 213 | 8.0 | 14.0 | 0.00 | 0.00 | 0.00 | 47 | 1014.4 |
| 20260507152516 | 57 | 217 | 6.0 | 14.0 | 0.00 | 0.00 | 0.00 | 47 | 1014.4 |
| 20260507152015 | 56 | 201 | 9.0 | 14.0 | 0.00 | 0.00 | 0.00 | 49 | 1014.3 |
| 20260507151514 | 56 | 211 | 8.0 | 14.0 | 0.00 | 0.00 | 0.00 | 49 | 1014.4 |
| 20260507151013 | 55 | 212 | 7.0 | 13.0 | 0.00 | 0.00 | 0.00 | 50 | 1014.4 |
| 20260507150515 | 55 | 205 | 7.0 | 13.0 | 0.00 | 0.00 | 0.00 | 49 | 1014.5 |
| 20260507150013 | 55 | 205 | 9.0 | 13.0 | 0.00 | 0.00 | 0.00 | 49 | 1014.6 |
| 20260507145512 | 55 | 215 | 8.0 | 12.0 | 0.00 | 0.00 | 0.00 | 49 | 1014.7 |
| 20260507145014 | 54 | 202 | 5.0 | 11.0 | 0.00 | 0.00 | 0.00 | 51 | 1014.7 |
| 20260507144509 | 54 | 216 | 8.0 | 11.0 | 0.00 | 0.00 | 0.00 | 48 | 1014.8 |
| 20260507144008 | 54 | 203 | 5.0 | 12.0 | 0.00 | 0.00 | 0.00 | 52 | 1014.7 |
| 20260507143505 | 53 | 226 | 6.0 | 12.0 | 0.00 | 0.00 | 0.00 | 52 | 1014.9 |
| 20260507143005 | 53 | 239 | 7.0 | 10.0 | 0.00 | 0.00 | 0.00 | 50 | 1015.0 |
| 20260507142504 | 53 | 227 | 4.0 | 10.0 | 0.00 | 0.00 | 0.00 | 52 | 1014.9 |
| 20260507142003 | 53 | 240 | 4.0 | 10.0 | 0.00 | 0.00 | 0.00 | 50 | 1014.9 |
| 20260507141502 | 52 | 202 | 5.0 | 9.0 | 0.00 | 0.00 | 0.00 | 51 | 1015.0 |
| 20260507141003 | 52 | 184 | 4.0 | 10.0 | 0.00 | 0.00 | 0.00 | 53 | 1015.1 |
| 20260507140601 | 51 | 175 | 5.0 | 10.0 | 0.00 | 0.00 | 0.00 | 58 | 1015.1 |
| 20260507140059 | 51 | 202 | 3.0 | 6.0 | 0.00 | 0.00 | 0.00 | 55 | 1015.2 |
| 20260507135559 | 51 | 170 | 4.0 | 9.0 | 0.00 | 0.00 | 0.00 | 57 | 1015.2 |
| 20260507135059 | 50 | 186 | 4.0 | 9.0 | 0.00 | 0.00 | 0.00 | 57 | 1015.2 |
| 20260507134600 | 50 | 227 | 5.0 | 9.0 | 0.00 | 0.00 | 0.00 | 58 | 1015.3 |
| 20260507134054 | 50 | 214 | 5.0 | 9.0 | 0.00 | 0.00 | 0.00 | 58 | 1015.4 |
| 20260507133553 | 49 | 194 | 5.0 | 9.0 | 0.00 | 0.00 | 0.00 | 61 | 1015.4 |
| 20260507133053 | 49 | 234 | 5.0 | 8.0 | 0.00 | 0.00 | 0.00 | 60 | 1015.4 |
| 20260507132550 | 48 | 195 | 4.0 | 7.0 | 0.00 | 0.00 | 0.00 | 64 | 1015.4 |
| 20260507132049 | 48 | 228 | 3.0 | 7.0 | 0.00 | 0.00 | 0.00 | 65 | 1015.5 |
| 20260507131549 | 47 | 206 | 4.0 | 6.0 | 0.00 | 0.00 | 0.00 | 65 | 1015.4 |
| 20260507131047 | 47 | 218 | 4.0 | 6.0 | 0.00 | 0.00 | 0.00 | 66 | 1015.4 |
| 20260507130545 | 46 | 184 | 3.0 | 5.0 | 0.00 | 0.00 | 0.00 | 66 | 1015.3 |
| 20260507130058 | 46 | 186 | 3.0 | 5.0 | 0.00 | 0.00 | 0.00 | 71 | 1015.4 |
| 20260507125543 | 45 | 203 | 2.0 | 4.0 | 0.00 | 0.00 | 0.00 | 74 | 1015.3 |
| 20260507125042 | 45 | 200 | 2.0 | 4.0 | 0.00 | 0.00 | 0.00 | 75 | 1015.3 |
| 20260507124552 | 44 | 165 | 2.0 | 4.0 | 0.00 | 0.00 | 0.00 | 75 | 1015.0 |
| 20260507124040 | 44 | 165 | 1.0 | 3.0 | 0.00 | 0.00 | 0.00 | 77 | 1015.0 |
| 20260507123539 | 43 | 168 | 1.0 | 3.0 | 0.00 | 0.00 | 0.00 | 80 | 1015.1 |
| 20260507123041 | 43 | 165 | 0.0 | 3.0 | 0.00 | 0.00 | 0.00 | 79 | 1015.1 |
| 20260507122536 | 42 | 165 | 0.0 | 3.0 | 0.00 | 0.00 | 0.00 | 83 | 1015.0 |
| 20260507122035 | 41 | 165 | 2.0 | 3.0 | 0.00 | 0.00 | 0.00 | 80 | 1015.0 |
| 20260507121538 | 40 | 165 | 1.0 | 3.0 | 0.00 | 0.00 | 0.00 | 84 | 1015.0 |
| 20260507121035 | 40 | 165 | 1.0 | 5.0 | 0.00 | 0.00 | 0.00 | 86 | 1015.1 |
| 20260507120540 | 39 | 165 | 3.0 | 5.0 | 0.00 | 0.00 | 0.00 | 85 | 1015.1 |
| 20260507120038 | 39 | 165 | 3.0 | 4.0 | 0.00 | 0.00 | 0.00 | 87 | 1015.1 |
| 20260507115534 | 38 | 147 | 2.0 | 4.0 | 0.00 | 0.00 | 0.00 | 88 | 1015.1 |
| 20260507115035 | 37 | 147 | 2.0 | 4.0 | 0.00 | 0.00 | 0.00 | 89 | 1015.1 |
| 20260507114534 | 37 | 148 | 2.0 | 4.0 | 0.00 | 0.00 | 0.00 | 89 | 1015.2 |
| 20260507114033 | 36 | 148 | 2.0 | 3.0 | 0.00 | 0.00 | 0.00 | 89 | 1015.1 |
| 20260507113534 | 36 | 148 | 2.0 | 3.0 | 0.00 | 0.00 | 0.00 | 89 | 1015.1 |
| 20260507113033 | 35 | 112 | 2.0 | 3.0 | 0.00 | 0.00 | 0.00 | 90 | 1015.0 |
| 20260507112532 | 35 | 112 | 0.0 | 0.0 | 0.00 | 0.00 | 0.00 | 90 | 1015.1 |
| 20260507112032 | 34 | 112 | 0.0 | 0.0 | 0.00 | 0.00 | 0.00 | 91 | 1015.0 |
| 20260507111532 | 34 | 49 | 0.0 | 0.0 | 0.00 | 0.00 | 0.00 | 91 | 1015.0 |
| 20260507111031 | 34 | 49 | 0.0 | 0.0 | 0.00 | 0.00 | 0.00 | 90 | 1015.0 |
| 20260507110531 | 33 | 49 | 0.0 | 1.0 | 0.00 | 0.00 | 0.00 | 90 | 1015.0 |
| 20260507110031 | 33 | 123 | 0.0 | 1.0 | 0.00 | 0.00 | 0.00 | 90 | 1015.0 |
| 20260507105530 | 33 | 79 | 0.0 | 1.0 | 0.00 | 0.00 | 0.00 | 90 | 1015.0 |
| 20260507105031 | 33 | 134 | 0.0 | 0.0 | 0.00 | 0.00 | 0.00 | 90 | 1015.0 |
| 20260507104531 | 33 | 134 | 0.0 | 0.0 | 0.00 | 0.00 | 0.00 | 89 | 1015.0 |
| 20260507104030 | 33 | 134 | 0.0 | 1.0 | 0.00 | 0.00 | 0.00 | 88 | 1015.0 |
| 20260507103529 | 33 | 134 | 0.0 | 2.0 | 0.00 | 0.00 | 0.00 | 88 | 1015.0 |
| 20260507103029 | 34 | 134 | 1.0 | 2.0 | 0.00 | 0.00 | 0.00 | 89 | 1015.0 |
| 20260507102529 | 34 | 134 | 1.0 | 3.0 | 0.00 | 0.00 | 0.00 | 89 | 1014.9 |
| 20260507102030 | 34 | 134 | 1.0 | 3.0 | 0.00 | 0.00 | 0.00 | 89 | 1015.0 |
| 20260507101538 | 34 | 134 | 2.0 | 3.0 | 0.00 | 0.00 | 0.00 | 89 | 1015.1 |
| 20260507101030 | 34 | 134 | 0.0 | 2.0 | 0.00 | 0.00 | 0.00 | 89 | 1015.1 |
| 20260507100527 | 34 | 134 | 0.0 | 0.0 | 0.00 | 0.00 | 0.00 | 89 | 1015.1 |
| 20260507100039 | 34 | 134 | 0.0 | 2.0 | 0.00 | 0.00 | 0.00 | 88 | 1015.0 |
| 20260507095526 | 34 | 134 | 0.0 | 3.0 | 0.00 | 0.00 | 0.00 | 88 | 1015.0 |
| 20260507095026 | 34 | 134 | 2.0 | 3.0 | 0.00 | 0.00 | 0.00 | 87 | 1014.9 |
| 20260507094524 | 34 | 134 | 2.0 | 3.0 | 0.00 | 0.00 | 0.00 | 87 | 1014.9 |
| 20260507094023 | 35 | 134 | 1.0 | 3.0 | 0.00 | 0.00 | 0.00 | 87 | 1015.1 |
| 20260507093527 | 35 | 134 | 1.0 | 3.0 | 0.00 | 0.00 | 0.00 | 88 | 1015.1 |
| 20260507093023 | 35 | 134 | 1.0 | 3.0 | 0.00 | 0.00 | 0.00 | 88 | 1015.1 |
| 20260507092523 | 35 | 134 | 2.0 | 3.0 | 0.00 | 0.00 | 0.00 | 88 | 1015.2 |
| 20260507092021 | 35 | 134 | 1.0 | 3.0 | 0.00 | 0.00 | 0.00 | 88 | 1015.2 |
| 20260507091522 | 35 | 134 | 2.0 | 3.0 | 0.00 | 0.00 | 0.00 | 89 | 1015.2 |
| 20260507091022 | 35 | 134 | 1.0 | 2.0 | 0.00 | 0.00 | 0.00 | 89 | 1015.3 |
| 20260507090522 | 35 | 134 | 1.0 | 2.0 | 0.00 | 0.00 | 0.00 | 88 | 1015.3 |
| 20260507090021 | 35 | 134 | 1.0 | 2.0 | 0.00 | 0.00 | 0.00 | 88 | 1015.2 |
| 20260507085521 | 35 | 134 | 1.0 | 3.0 | 0.00 | 0.00 | 0.00 | 89 | 1015.3 |
| 20260507085021 | 35 | 134 | 1.0 | 3.0 | 0.00 | 0.00 | 0.00 | 88 | 1015.3 |
| 20260507084520 | 36 | 134 | 1.0 | 2.0 | 0.00 | 0.00 | 0.00 | 88 | 1015.2 |
| 20260507084020 | 36 | 134 | 0.0 | 0.0 | 0.00 | 0.00 | 0.00 | 88 | 1015.2 |
| 20260507083520 | 36 | 134 | 0.0 | 0.0 | 0.00 | 0.00 | 0.00 | 87 | 1015.1 |
| 20260507083019 | 36 | 134 | 0.0 | 0.0 | 0.00 | 0.00 | 0.00 | 87 | 1015.2 |
| 20260507082522 | 36 | 134 | 0.0 | 0.0 | 0.00 | 0.00 | 0.00 | 86 | 1015.1 |
| 20260507082018 | 36 | 134 | 0.0 | 1.0 | 0.00 | 0.00 | 0.00 | 85 | 1015.0 |
| 20260507081520 | 36 | 134 | 0.0 | 1.0 | 0.00 | 0.00 | 0.00 | 85 | 1015.0 |
| 20260507081018 | 36 | 134 | 0.0 | 1.0 | 0.00 | 0.00 | 0.00 | 84 | 1015.0 |
| 20260507080518 | 36 | 134 | 0.0 | 2.0 | 0.00 | 0.00 | 0.00 | 85 | 1015.0 |
| 20260507080018 | 36 | 134 | 1.0 | 2.0 | 0.00 | 0.00 | 0.00 | 85 | 1015.0 |
| 20260507075517 | 36 | 134 | 1.0 | 3.0 | 0.00 | 0.00 | 0.00 | 85 | 1015.0 |
| 20260507075017 | 36 | 134 | 2.0 | 3.0 | 0.00 | 0.00 | 0.00 | 85 | 1015.1 |
| 20260507074517 | 36 | 134 | 2.0 | 3.0 | 0.00 | 0.00 | 0.00 | 86 | 1015.1 |
| 20260507074016 | 36 | 134 | 2.0 | 3.0 | 0.00 | 0.00 | 0.00 | 86 | 1015.0 |
| 20260507073520 | 35 | 134 | 2.0 | 4.0 | 0.00 | 0.00 | 0.00 | 87 | 1015.0 |
| 20260507073016 | 35 | 134 | 2.0 | 4.0 | 0.00 | 0.00 | 0.00 | 87 | 1015.1 |
| 20260507072515 | 35 | 134 | 2.0 | 4.0 | 0.00 | 0.00 | 0.00 | 87 | 1015.0 |
| 20260507072015 | 35 | 124 | 2.0 | 3.0 | 0.00 | 0.00 | 0.00 | 86 | 1015.0 |
| 20260507071514 | 35 | 124 | 2.0 | 3.0 | 0.00 | 0.00 | 0.00 | 86 | 1015.1 |
| 20260507071013 | 36 | 124 | 1.0 | 2.0 | 0.00 | 0.00 | 0.00 | 85 | 1015.1 |
| 20260507070512 | 36 | 124 | 1.0 | 3.0 | 0.00 | 0.00 | 0.00 | 85 | 1015.0 |
| 20260507070013 | 36 | 124 | 2.0 | 3.0 | 0.00 | 0.00 | 0.00 | 86 | 1015.0 |
| 20260507065510 | 36 | 124 | 2.0 | 4.0 | 0.00 | 0.00 | 0.00 | 85 | 1015.0 |
| 20260507065011 | 36 | 124 | 2.0 | 4.0 | 0.00 | 0.00 | 0.00 | 85 | 1015.1 |
| 20260507064510 | 36 | 124 | 2.0 | 3.0 | 0.00 | 0.00 | 0.00 | 85 | 1015.2 |
| 20260507064010 | 36 | 124 | 2.0 | 3.0 | 0.00 | 0.00 | 0.00 | 84 | 1015.2 |
| 20260507063507 | 37 | 272 | 0.0 | 0.0 | 0.00 | 0.00 | 0.00 | 84 | 1015.3 |
| 20260507063005 | 37 | 272 | 0.0 | 0.0 | 0.00 | 0.00 | 0.00 | 83 | 1015.3 |
| 20260507062506 | 37 | 272 | 0.0 | 0.0 | 0.00 | 0.00 | 0.00 | 83 | 1015.3 |
| 20260507062004 | 37 | 272 | 0.0 | 0.0 | 0.00 | 0.00 | 0.00 | 82 | 1015.3 |
| 20260507061504 | 38 | 272 | 0.0 | 0.0 | 0.00 | 0.00 | 0.00 | 80 | 1015.3 |
| 20260507061001 | 38 | 272 | 0.0 | 0.0 | 0.00 | 0.00 | 0.00 | 79 | 1015.2 |
| 20260507060501 | 38 | 272 | 0.0 | 0.0 | 0.00 | 0.00 | 0.00 | 77 | 1015.2 |
| 20260507060100 | 39 | 272 | 0.0 | 0.0 | 0.00 | 0.00 | 0.00 | 76 | 1015.2 |
| 20260507055559 | 40 | 272 | 0.0 | 0.0 | 0.00 | 0.00 | 0.00 | 73 | 1015.2 |
| 20260507055059 | 39 | 272 | 0.0 | 0.0 | 0.00 | 0.00 | 0.00 | 72 | 1015.3 |
| 20260507054558 | 40 | 272 | 0.0 | 0.0 | 0.00 | 0.00 | 0.00 | 74 | 1015.3 |
| 20260507054057 | 40 | 272 | 0.0 | 0.0 | 0.00 | 0.00 | 0.00 | 74 | 1015.3 |
| 20260507053556 | 40 | 272 | 0.0 | 0.0 | 0.00 | 0.00 | 0.00 | 69 | 1015.3 |
| 20260507053056 | 41 | 272 | 0.0 | 0.0 | 0.00 | 0.00 | 0.00 | 68 | 1015.3 |
| 20260507052559 | 41 | 272 | 0.0 | 0.0 | 0.00 | 0.00 | 0.00 | 68 | 1015.3 |
| 20260507052054 | 41 | 272 | 0.0 | 0.0 | 0.00 | 0.00 | 0.00 | 69 | 1015.3 |
| 20260507051555 | 40 | 272 | 0.0 | 0.0 | 0.00 | 0.00 | 0.00 | 69 | 1015.2 |
| 20260507051055 | 40 | 272 | 0.0 | 0.0 | 0.00 | 0.00 | 0.00 | 69 | 1015.2 |
| 20260507050557 | 40 | 272 | 0.0 | 0.0 | 0.00 | 0.00 | 0.00 | 69 | 1015.3 |
| 20260507050052 | 40 | 272 | 0.0 | 0.0 | 0.00 | 0.00 | 0.00 | 70 | 1015.1 |
| 20260507045555 | 40 | 272 | 0.0 | 0.0 | 0.00 | 0.00 | 0.00 | 69 | 1015.2 |
| 20260507045052 | 41 | 272 | 0.0 | 0.0 | 0.00 | 0.00 | 0.00 | 69 | 1015.2 |
| 20260507044552 | 41 | 272 | 0.0 | 0.0 | 0.00 | 0.00 | 0.00 | 68 | 1015.1 |
| 20260507044053 | 42 | 272 | 0.0 | 0.0 | 0.00 | 0.00 | 0.00 | 67 | 1015.1 |
| 20260507043551 | 42 | 272 | 0.0 | 0.0 | 0.00 | 0.00 | 0.00 | 65 | 1015.1 |
| 20260507043050 | 42 | 272 | 0.0 | 0.0 | 0.00 | 0.00 | 0.00 | 66 | 1015.1 |
| 20260507042551 | 42 | 272 | 0.0 | 0.0 | 0.00 | 0.00 | 0.00 | 66 | 1015.1 |
| 20260507042050 | 42 | 272 | 0.0 | 1.0 | 0.00 | 0.00 | 0.00 | 66 | 1015.1 |
| 20260507041551 | 42 | 272 | 0.0 | 2.0 | 0.00 | 0.00 | 0.00 | 66 | 1015.1 |
| 20260507041050 | 43 | 272 | 0.0 | 2.0 | 0.00 | 0.00 | 0.00 | 67 | 1015.2 |
| 20260507040550 | 43 | 272 | 1.0 | 2.0 | 0.00 | 0.00 | 0.00 | 67 | 1015.2 |
| 20260507040050 | 43 | 271 | 1.0 | 3.0 | 0.00 | 0.00 | 0.00 | 65 | 1015.1 |
| 20260507035549 | 43 | 271 | 1.0 | 3.0 | 0.00 | 0.00 | 0.00 | 65 | 1015.1 |
| 20260507035050 | 43 | 271 | 1.0 | 4.0 | 0.00 | 0.00 | 0.00 | 63 | 1015.2 |
| 20260507034549 | 43 | 288 | 2.0 | 4.0 | 0.00 | 0.00 | 0.00 | 63 | 1015.2 |
| 20260507034049 | 43 | 296 | 1.0 | 3.0 | 0.00 | 0.00 | 0.00 | 68 | 1015.2 |
| 20260507033549 | 43 | 302 | 0.0 | 3.0 | 0.00 | 0.00 | 0.00 | 68 | 1015.2 |
| 20260507033049 | 44 | 302 | 1.0 | 4.0 | 0.00 | 0.00 | 0.00 | 65 | 1015.2 |
| 20260507032548 | 44 | 302 | 2.0 | 4.0 | 0.00 | 0.00 | 0.00 | 63 | 1015.3 |
| 20260507032050 | 44 | 292 | 2.0 | 4.0 | 0.00 | 0.00 | 0.00 | 64 | 1015.3 |
| 20260507031550 | 45 | 298 | 1.0 | 4.0 | 0.00 | 0.00 | 0.00 | 65 | 1015.3 |
| 20260507031052 | 45 | 298 | 1.0 | 4.0 | 0.00 | 0.00 | 0.00 | 63 | 1015.3 |
| 20260507030548 | 46 | 293 | 2.0 | 4.0 | 0.00 | 0.00 | 0.00 | 59 | 1015.3 |
| 20260507030048 | 46 | 291 | 2.0 | 4.0 | 0.00 | 0.00 | 0.00 | 59 | 1015.2 |
| 20260507025549 | 46 | 290 | 2.0 | 4.0 | 0.00 | 0.00 | 0.00 | 58 | 1015.3 |
| 20260507025050 | 46 | 288 | 1.0 | 4.0 | 0.00 | 0.00 | 0.00 | 57 | 1015.2 |
| 20260507024559 | 46 | 294 | 1.0 | 4.0 | 0.00 | 0.00 | 0.00 | 59 | 1015.1 |
| 20260507024047 | 46 | 273 | 2.0 | 5.0 | 0.00 | 0.00 | 0.00 | 56 | 1015.2 |
| 20260507023552 | 46 | 267 | 2.0 | 5.0 | 0.00 | 0.00 | 0.00 | 57 | 1015.1 |
| 20260507023045 | 46 | 278 | 2.0 | 4.0 | 0.00 | 0.00 | 0.00 | 58 | 1015.0 |
| 20260507022549 | 46 | 270 | 2.0 | 4.0 | 0.00 | 0.00 | 0.00 | 58 | 1014.9 |
| 20260507022043 | 46 | 266 | 1.0 | 4.0 | 0.00 | 0.00 | 0.00 | 58 | 1014.8 |
| 20260507021544 | 47 | 291 | 0.0 | 3.0 | 0.00 | 0.00 | 0.00 | 57 | 1014.8 |
| 20260507021042 | 47 | 291 | 1.0 | 4.0 | 0.00 | 0.00 | 0.00 | 59 | 1014.7 |
| 20260507020542 | 47 | 291 | 0.0 | 4.0 | 0.00 | 0.00 | 0.00 | 60 | 1014.6 |
| 20260507020059 | 47 | 289 | 2.0 | 5.0 | 0.00 | 0.00 | 0.00 | 59 | 1014.6 |
| 20260507015540 | 47 | 288 | 3.0 | 5.0 | 0.00 | 0.00 | 0.00 | 59 | 1014.6 |
| 20260507015040 | 46 | 282 | 2.0 | 4.0 | 0.00 | 0.00 | 0.00 | 62 | 1014.4 |
| 20260507014545 | 46 | 305 | 2.0 | 4.0 | 0.00 | 0.00 | 0.00 | 63 | 1014.3 |
| 20260507014039 | 47 | 305 | 2.0 | 6.0 | 0.00 | 0.00 | 0.00 | 62 | 1014.2 |
| 20260507013539 | 47 | 295 | 3.0 | 6.0 | 0.00 | 0.00 | 0.00 | 59 | 1014.2 |